Manama, Bahrain

7:35 PM AST on October 20, 2019 (GMT +0300)
Bahrain International

Weather History for OBBI - September, 2019

Change the Weather History Date:

Saturday, September 21, 2019

  Actual Average Record
Temperature  
Mean Temperature 95 °F -  
Max Temperature 102 °F 92 °F 104 °F (1998)
Min Temperature 88 °F 80 °F 82 °F (1996)
Cooling Degree Days 30    
Growing Degree Days 45 (Base 50)    
Moisture  
Dew Point 73 °F    
Average Humidity 51    
Maximum Humidity 75    
Minimum Humidity 21    
Precipitation  
Precipitation 0.00 in 0.00 in - ()
Sea Level Pressure  
Sea Level Pressure 29.62 in    
Wind  
Wind Speed 7 mph ()    
Max Wind Speed 13 mph    
Max Gust Speed -    
Visibility 8.6 miles    
Events      
Averages and records for this station are not official NWS values.
T = Trace of Precipitation, MM = Missing Value Source: Averaged Metar Reports

Daily Weather History Graph

Daily Weather History Graph

Search for Another Location

Airport or City:

Astronomy

Sep. 21, 2019 Rise Set
Actual Time 5:25 AM AST 5:35 PM AST
Civil Twilight 5:02 AM AST 5:58 PM AST
Nautical Twilight 4:35 AM AST 6:25 PM AST
Astronomical Twilight 4:08 AM AST 6:52 PM AST
Moon 10:29 PM AST (9/21) 11:33 AM AST (9/21)
Length of Visible Light 12h 56m
Length of Day
12h 10m
Waning Gibbous, 58% of the Moon is Illuminated
Sep 21
Waning Gibbous
Sep 22
Last Quarter
Sep 28
New
Oct 5
First Quarter
Oct 14
Full

Hourly Weather History & Observations

Time (AST) Temp. Heat Index Dew Point Humidity Pressure Visibility Wind Dir Wind Speed Gust Speed Precip Events Conditions
12:00 AM 90 °F - 80 °F 65% 29.67 in 7 mi South 6.9 mph - -  
12:00 AM 89.6 °F 108.2 °F 80.6 °F 75% 29.65 in - South 6.9 mph - N/A   Clear
12:30 AM 89.6 °F 104.7 °F 78.8 °F 70% 29.65 in - South 6.9 mph - N/A   Clear
1:00 AM 89.6 °F 102.2 °F 77.0 °F 66% 29.65 in - South 6.9 mph - N/A   Clear
1:30 AM 89.6 °F 99.8 °F 75.2 °F 62% 29.62 in - SSW 4.6 mph - N/A   Clear
2:00 AM 89.6 °F 96.2 °F 71.6 °F 55% 29.62 in - SW 3.5 mph - N/A   Clear
2:30 AM 89.6 °F 96.2 °F 71.6 °F 55% 29.62 in - SW 5.8 mph - N/A   Clear
3:00 AM 90 °F - 72 °F 46% 29.63 in 7 mi SW 4.6 mph - -  
3:00 AM 89.6 °F 96.2 °F 71.6 °F 55% 29.62 in - SW 4.6 mph - N/A   Clear
3:30 AM 89.6 °F 102.2 °F 77.0 °F 66% 29.62 in - SW 8.1 mph - N/A   Clear
4:00 AM 89.6 °F 102.2 °F 77.0 °F 66% 29.62 in - SW 6.9 mph - N/A   Clear
4:30 AM 89.6 °F 99.8 °F 75.2 °F 62% 29.62 in - WSW 5.8 mph - N/A   Clear
5:00 AM 89.6 °F 98.2 °F 73.4 °F 59% 29.65 in - SW 5.8 mph - N/A   Clear
5:30 AM 89.6 °F 98.2 °F 73.4 °F 59% 29.65 in - Variable 3.5 mph - N/A   Clear
6:00 AM 90 °F - 68 °F 38% 29.66 in 10 mi SW 6.9 mph - -   Clear
6:00 AM 89.6 °F 93.4 °F 68.0 °F 49% 29.65 in - SW 6.9 mph - N/A   Clear
6:30 AM 89.6 °F 93.4 °F 68.0 °F 49% 29.65 in - SW 4.6 mph - N/A   Clear
7:00 AM 91.4 °F 94.0 °F 66.2 °F 43% 29.65 in - SW 6.9 mph - N/A   Clear
7:30 AM 93.2 °F 94.9 °F 64.4 °F 38% 29.68 in - SSW 4.6 mph - N/A   Clear
8:00 AM 95.0 °F 101.3 °F 69.8 °F 44% 29.68 in - East 6.9 mph - N/A   Clear
8:30 AM 96.8 °F 105.1 °F 71.6 °F 44% 29.68 in - ESE 4.6 mph - N/A   Clear
9:00 AM 95 °F - 70 °F 35% 29.69 in 10 mi ESE 8.1 mph - -  
9:00 AM 95.0 °F 101.3 °F 69.8 °F 44% 29.68 in - ESE 8.1 mph - N/A   Clear
9:30 AM 95.0 °F 104.5 °F 73.4 °F 49% 29.68 in - ESE 9.2 mph - N/A   Clear
10:00 AM 96.8 °F 107.3 °F 73.4 °F 47% 29.65 in - ESE 9.2 mph - N/A   Clear
10:30 AM 96.8 °F 107.3 °F 73.4 °F 47% 29.65 in - ESE 12.7 mph - N/A   Clear
11:00 AM 96.8 °F 105.1 °F 71.6 °F 44% 29.65 in - ESE 11.5 mph - N/A   Clear
11:30 AM 96.8 °F 103.1 °F 69.8 °F 41% 29.62 in - ESE 11.5 mph - N/A   Clear
12:00 PM 98 °F - 70 °F 31% 29.64 in 10 mi East 10.4 mph - -  
12:00 PM 98.6 °F 105.5 °F 69.8 °F 39% 29.62 in - East 10.4 mph - N/A   Clear
12:30 PM 98.6 °F 107.7 °F 71.6 °F 42% 29.62 in - East 11.5 mph - N/A   Clear
1:00 PM 98.6 °F 107.7 °F 71.6 °F 42% 29.59 in - ESE 11.5 mph - N/A   Clear
1:30 PM 98.6 °F 105.5 °F 69.8 °F 39% 29.59 in - East 11.5 mph - N/A   Clear
2:00 PM 102.2 °F 100.9 °F 55.4 °F 21% 29.59 in - ESE 10.4 mph - N/A   Clear
3:00 PM 101 °F - - 30% 29.59 in 9 mi East 9.2 mph - -  
3:00 PM 102.2 °F 104.2 °F 62.6 °F 27% 29.56 in - East 9.2 mph - N/A   Clear
3:30 PM 102.2 °F 104.2 °F 62.6 °F 27% 29.56 in - ESE 8.1 mph - N/A   Clear
4:00 PM 100.4 °F 104.9 °F 66.2 °F 33% 29.56 in - ESE 6.9 mph - N/A   Clear
4:30 PM 98.6 °F 105.5 °F 69.8 °F 39% 29.56 in - ESE 6.9 mph - N/A   Clear
5:00 PM 96.8 °F 107.3 °F 73.4 °F 47% 29.56 in - East 5.8 mph - N/A   Clear
5:30 PM 95.0 °F 109.7 °F 77.0 °F 56% 29.59 in - East 4.6 mph - N/A   Clear
6:00 PM 93 °F - 80 °F 59% 29.59 in 9 mi East 5.8 mph - -  
6:00 PM 93.2 °F 113.6 °F 80.6 °F 67% 29.59 in - East 5.8 mph - N/A   Clear
6:30 PM 93.2 °F 113.6 °F 80.6 °F 67% 29.59 in - East 6.9 mph - N/A   Clear
7:00 PM 91.4 °F 114.3 °F 82.4 °F 75% 29.59 in - East 9.2 mph - N/A   Clear
7:30 PM 93.2 °F 113.6 °F 80.6 °F 67% 29.59 in - East 9.2 mph - N/A   Clear
8:00 PM 93.2 °F 110.2 °F 78.8 °F 63% 29.62 in - East 9.2 mph - N/A   Clear
8:30 PM 93.2 °F 110.2 °F 78.8 °F 63% 29.62 in - ESE 10.4 mph - N/A   Clear
9:00 PM 93 °F - 80 °F 58% 29.63 in 7 mi ESE 10.4 mph - -  
9:00 PM 93.2 °F 113.6 °F 80.6 °F 67% 29.62 in - ESE 10.4 mph - N/A   Clear
9:30 PM 93.2 °F 107.2 °F 77.0 °F 59% 29.62 in - SE 8.1 mph - N/A   Clear
10:00 PM 93.2 °F 105.0 °F 75.2 °F 56% 29.62 in - SE 8.1 mph - N/A   Clear
10:30 PM 93.2 °F 107.2 °F 77.0 °F 59% 29.62 in - SE 6.9 mph - N/A   Clear
11:00 PM 93.2 °F 107.2 °F 77.0 °F 59% 29.62 in - SE 6.9 mph - N/A   Clear
11:30 PM 93.2 °F 107.2 °F 77.0 °F 59% 29.62 in - SE 4.6 mph - N/A   Clear